{"data":{"norad_id":36834,"intl_designator":"2010-038A","name":"YAOGAN-10","alt_names":[],"object_type":"PAYLOAD","status":"ACTIVE","operator":null,"country":"PRC","launch_date":"2010-08-09","launch_site_code":"TAISC","launch_vehicle":null,"mission":null,"orbit_class":"UNKNOWN","rcs_meters":4.795,"size_class":null,"mass_kg":null,"dimensions":null,"purposes":["earth_obs"],"wikipedia_slug":null,"has_3d_model":false,"image_url":null,"decayed_at":null,"tle_current":{"epoch":"2026-09-20T04:46:50.375424Z","epoch_age_seconds":40441,"freshness":"FRESH","line1":"1 36834U 10038A   26263.19919416  .00000972  00000+0  11863-3 0  9994","line2":"2 36834  97.8955 285.8466 0001591  89.0813   1.8838 14.85588895871312","mean_motion":14.85588895,"eccentricity":0.0001591,"inclination_deg":97.8955,"raan_deg":285.8466,"arg_perigee_deg":89.0813,"mean_anomaly_deg":1.8838,"bstar":0.00011863,"rev_number":87131,"period_min":96.931257688218,"perigee_km":610.62595028894,"apogee_km":612.85012852648,"semimajor_km":6989.8750394077,"source":"CELESTRAK","updated_at":"2026-09-20T09:00:33.891379Z"}}}